Location: Doverdale
(52.2833°N, 2.2000°W)
Time: 12:01:16
(UTC+00:00)

GEOS 3 Rocket - Pass Details

Date: 29 October 2020
Orbit: 770 x 850 km, 115.0° (Epoch: 25 November)

Event Time Altitude Azimuth Distance (km) Brightness Sun altitude
Exits shadow 18:17:20 18° 111° (ESE) 1,926 5.0 -14.6°
Maximum altitude 18:21:12 59° 37° (NE) 973 3.8 -15.2°
Drops below altitude 10° 18:26:31 10° 320° (NW) 2,484 6.7 -16.0°
Sets 18:28:53 0° 316° (NW) 3,424 7.5 -16.4°
